Time,TemperatureF,DewpointF,PressureIn,WindDirection,WindDirectionDegrees,WindSpeedMPH,WindSpeedGustMPH,Humidity,HourlyPrecipIn,Conditions,Clouds,dailyrainin,SoftwareType,DateUTC
2013-10-14 00:02:00,74.3,65.5,29.86,WNW,292,3.7,-999.0,74,-99.99,,,0.00,Acu-Link.com,2013-10-14 10:02:00,
2013-10-14 00:17:00,75.0,65.7,29.85,West,270,3.2,-999.0,73,-99.99,,,0.00,Acu-Link.com,2013-10-14 10:17:00,
2013-10-14 00:32:00,75.2,65.9,29.85,WNW,292,4.7,-999.0,73,-99.99,,,0.00,Acu-Link.com,2013-10-14 10:32:00,
2013-10-14 00:47:00,75.0,65.7,29.84,WNW,292,2.7,-999.0,73,-99.99,,,0.00,Acu-Link.com,2013-10-14 10:47:00,
2013-10-14 01:02:00,74.5,65.3,29.83,NNW,337,4.7,-999.0,73,-99.99,,,0.00,Acu-Link.com,2013-10-14 11:02:00,
2013-10-14 01:18:00,74.5,65.3,29.83,NNW,337,5.3,-999.0,73,-99.99,,,0.00,Acu-Link.com,2013-10-14 11:18:00,
2013-10-14 01:33:00,74.7,65.5,29.83,WNW,292,4.2,-999.0,73,-99.99,,,0.00,Acu-Link.com,2013-10-14 11:33:00,
2013-10-14 01:48:00,74.8,65.6,29.82,NNE,22,2.7,-999.0,73,-99.99,,,0.00,Acu-Link.com,2013-10-14 11:48:00,
2013-10-14 02:03:00,74.1,65.3,29.82,NNW,337,4.2,-999.0,74,-99.99,,,0.00,Acu-Link.com,2013-10-14 12:03:00,
2013-10-14 02:18:00,73.0,65.0,29.82,South,180,0.0,-999.0,76,-99.99,,,0.00,Acu-Link.com,2013-10-14 12:18:00,
2013-10-14 02:33:00,72.0,64.8,29.82,North,0,2.2,-999.0,78,-99.99,,,0.00,Acu-Link.com,2013-10-14 12:33:00,
2013-10-14 02:48:00,71.4,64.5,29.82,South,180,3.7,-999.0,79,-99.99,,,0.00,Acu-Link.com,2013-10-14 12:48:00,
2013-10-14 03:03:00,71.6,64.7,29.81,ESE,112,2.2,-999.0,79,-99.99,,,0.00,Acu-Link.com,2013-10-14 13:03:00,
2013-10-14 03:18:00,71.4,64.5,29.81,ESE,112,0.0,-999.0,79,-99.99,,,0.00,Acu-Link.com,2013-10-14 13:18:00,
2013-10-14 03:34:00,70.9,64.4,29.81,South,180,1.1,-999.0,80,-99.99,,,0.00,Acu-Link.com,2013-10-14 13:34:00,
2013-10-14 03:49:00,70.9,64.8,29.80,SW,225,2.7,-999.0,81,-99.99,,,0.00,Acu-Link.com,2013-10-14 13:49:00,
2013-10-14 04:04:00,71.8,65.3,29.81,NE,45,3.2,-999.0,80,-99.99,,,0.00,Acu-Link.com,2013-10-14 14:04:00,
2013-10-14 04:19:00,72.0,65.5,29.81,West,270,3.7,-999.0,80,-99.99,,,0.00,Acu-Link.com,2013-10-14 14:19:00,
2013-10-14 04:34:00,72.9,66.7,29.82,NNW,337,6.3,-999.0,81,-99.99,,,0.00,Acu-Link.com,2013-10-14 14:34:00,
2013-10-14 04:49:00,72.5,65.2,29.82,NNW,337,3.7,-999.0,78,-99.99,,,0.00,Acu-Link.com,2013-10-14 14:49:00,
2013-10-14 05:04:00,72.1,65.2,29.82,NW,315,3.7,-999.0,79,-99.99,,,0.00,Acu-Link.com,2013-10-14 15:04:00,
2013-10-14 05:19:00,73.0,66.1,29.82,NNW,337,7.8,-999.0,79,-99.99,,,0.00,Acu-Link.com,2013-10-14 15:19:00,
2013-10-14 05:34:00,73.9,65.8,29.82,NW,315,9.9,-999.0,76,-99.99,,,0.00,Acu-Link.com,2013-10-14 15:34:00,
2013-10-14 05:50:00,74.3,65.5,29.82,NNW,337,5.8,-999.0,74,-99.99,,,0.00,Acu-Link.com,2013-10-14 15:50:00,
2013-10-14 06:05:00,74.1,65.3,29.82,NW,315,5.3,-999.0,74,-99.99,,,0.00,Acu-Link.com,2013-10-14 16:05:00,
2013-10-14 06:20:00,73.4,65.0,29.82,SE,135,0.0,-999.0,75,-99.99,,,0.00,Acu-Link.com,2013-10-14 16:20:00,
2013-10-14 06:35:00,72.5,65.2,29.83,NNE,22,0.0,-999.0,78,-99.99,,,0.00,Acu-Link.com,2013-10-14 16:35:00,
2013-10-14 06:50:00,73.9,66.2,29.84,WNW,292,0.0,-999.0,77,-99.99,,,0.00,Acu-Link.com,2013-10-14 16:50:00,
2013-10-14 07:05:00,76.3,66.6,29.84,North,0,3.7,-999.0,72,-99.99,,,0.00,Acu-Link.com,2013-10-14 17:05:00,
2013-10-14 07:20:00,77.9,67.3,29.84,WNW,292,4.7,-999.0,70,-99.99,,,0.00,Acu-Link.com,2013-10-14 17:20:00,
2013-10-14 07:35:00,79.5,68.0,29.85,NNE,22,4.7,-999.0,68,-99.99,,,0.00,Acu-Link.com,2013-10-14 17:35:00,
2013-10-14 07:50:00,80.8,69.7,29.85,North,0,2.7,-999.0,69,-99.99,,,0.00,Acu-Link.com,2013-10-14 17:50:00,
2013-10-14 08:06:00,81.9,69.8,29.85,NNE,22,2.7,-999.0,67,-99.99,,,0.00,Acu-Link.com,2013-10-14 18:06:00,
2013-10-14 08:21:00,82.4,69.4,29.85,North,0,4.2,-999.0,65,-99.99,,,0.00,Acu-Link.com,2013-10-14 18:21:00,
2013-10-14 08:36:00,81.5,68.6,29.85,North,0,9.9,-999.0,65,-99.99,,,0.00,Acu-Link.com,2013-10-14 18:36:00,
2013-10-14 08:51:00,83.3,70.3,29.85,NNE,22,5.8,-999.0,65,-99.99,,,0.00,Acu-Link.com,2013-10-14 18:51:00,
2013-10-14 09:06:00,84.6,70.6,29.85,North,0,8.9,-999.0,63,-99.99,,,0.00,Acu-Link.com,2013-10-14 19:06:00,
2013-10-14 09:21:00,83.1,70.5,29.85,NNE,22,7.8,-999.0,66,-99.99,,,0.00,Acu-Link.com,2013-10-14 19:21:00,
2013-10-14 09:36:00,81.9,71.1,29.86,NNE,22,5.3,-999.0,70,-99.99,,,0.00,Acu-Link.com,2013-10-14 19:36:00,
2013-10-14 09:51:00,82.4,71.6,29.85,NE,45,6.3,-999.0,70,-99.99,,,0.00,Acu-Link.com,2013-10-14 19:51:00,
2013-10-14 10:06:00,82.2,72.3,29.85,NE,45,8.9,-999.0,72,-99.99,,,0.00,Acu-Link.com,2013-10-14 20:06:00,
2013-10-14 10:22:00,81.9,72.8,29.85,NNE,22,5.3,-999.0,74,-99.99,,,0.00,Acu-Link.com,2013-10-14 20:22:00,
2013-10-14 10:37:00,82.4,72.4,29.85,North,0,4.7,-999.0,72,-99.99,,,0.00,Acu-Link.com,2013-10-14 20:37:00,
2013-10-14 10:52:00,84.9,72.7,29.84,NE,45,4.7,-999.0,67,-99.99,,,0.00,Acu-Link.com,2013-10-14 20:52:00,
2013-10-14 11:07:00,85.3,72.2,29.83,NW,315,6.8,-999.0,65,-99.99,,,0.00,Acu-Link.com,2013-10-14 21:07:00,
2013-10-14 11:22:00,84.4,72.7,29.83,NE,45,8.3,-999.0,68,-99.99,,,0.00,Acu-Link.com,2013-10-14 21:22:00,
2013-10-14 11:37:00,82.2,71.0,29.83,North,0,8.9,-999.0,69,-99.99,,,0.00,Acu-Link.com,2013-10-14 21:37:00,
2013-10-14 11:52:00,82.9,72.1,29.82,NNW,337,9.4,-999.0,70,-99.99,,,0.00,Acu-Link.com,2013-10-14 21:52:00,
2013-10-14 12:07:00,82.8,71.1,29.81,NE,45,8.3,-999.0,68,-99.99,,,0.00,Acu-Link.com,2013-10-14 22:07:00,
2013-10-14 12:22:00,81.9,71.6,29.81,NE,45,9.9,-999.0,71,-99.99,,,0.00,Acu-Link.com,2013-10-14 22:22:00,
2013-10-14 12:38:00,81.9,70.7,29.81,NE,45,7.3,-999.0,69,-99.99,,,0.00,Acu-Link.com,2013-10-14 22:38:00,
2013-10-14 12:53:00,82.6,71.8,29.80,North,0,8.3,-999.0,70,-99.99,,,0.00,Acu-Link.com,2013-10-14 22:53:00,
2013-10-14 13:08:00,81.3,71.0,29.79,North,0,3.7,-999.0,71,-99.99,,,0.00,Acu-Link.com,2013-10-14 23:08:00,
2013-10-14 13:23:00,83.3,72.0,29.79,ENE,67,8.3,-999.0,69,-99.99,,,0.00,Acu-Link.com,2013-10-14 23:23:00,
2013-10-14 13:38:00,82.4,70.8,29.78,NNW,337,8.3,-999.0,68,-99.99,,,0.00,Acu-Link.com,2013-10-14 23:38:00,
2013-10-14 13:53:00,81.1,72.0,29.79,NE,45,11.9,-999.0,74,-99.99,,,0.00,Acu-Link.com,2013-10-14 23:53:00,
2013-10-14 14:08:00,80.6,71.9,29.78,North,0,8.9,-999.0,75,-99.99,,,0.00,Acu-Link.com,2013-10-15 00:08:00,
2013-10-14 14:23:00,80.8,72.5,29.79,NNE,22,9.9,-999.0,76,-99.99,,,0.00,Acu-Link.com,2013-10-15 00:23:00,
2013-10-14 14:38:00,79.9,71.2,29.79,NNE,22,5.3,-999.0,75,-99.99,,,0.00,Acu-Link.com,2013-10-15 00:38:00,
2013-10-14 14:54:00,80.6,71.9,29.78,NE,45,8.3,-999.0,75,-99.99,,,0.00,Acu-Link.com,2013-10-15 00:54:00,
2013-10-14 15:09:00,81.1,71.2,29.79,NW,315,8.3,-999.0,72,-99.99,,,0.00,Acu-Link.com,2013-10-15 01:09:00,
2013-10-14 15:24:00,81.0,71.9,29.79,NNW,337,8.9,-999.0,74,-99.99,,,0.00,Acu-Link.com,2013-10-15 01:24:00,
2013-10-14 15:39:00,79.5,71.3,29.79,North,0,3.7,-999.0,76,-99.99,,,0.00,Acu-Link.com,2013-10-15 01:39:00,
2013-10-14 15:54:00,79.2,71.3,29.79,NNE,22,7.3,-999.0,77,-99.99,,,0.00,Acu-Link.com,2013-10-15 01:54:00,
2013-10-14 16:09:00,79.0,71.2,29.79,NNE,22,6.8,-999.0,77,-99.99,,,0.00,Acu-Link.com,2013-10-15 02:09:00,
2013-10-14 16:24:00,78.6,71.5,29.80,NNE,22,8.3,-999.0,79,-99.99,,,0.00,Acu-Link.com,2013-10-15 02:24:00,
2013-10-14 16:39:00,78.4,70.6,29.80,NW,315,6.8,-999.0,77,-99.99,,,0.00,Acu-Link.com,2013-10-15 02:39:00,
2013-10-14 16:54:00,78.4,71.0,29.80,NNW,337,6.8,-999.0,78,-99.99,,,0.00,Acu-Link.com,2013-10-15 02:54:00,
2013-10-14 17:10:00,77.9,70.1,29.81,West,270,6.3,-999.0,77,-99.99,,,0.00,Acu-Link.com,2013-10-15 03:10:00,
2013-10-14 17:25:00,77.5,70.1,29.82,North,0,5.3,-999.0,78,-99.99,,,0.00,Acu-Link.com,2013-10-15 03:25:00,
2013-10-14 17:40:00,77.4,70.0,29.82,NW,315,7.3,-999.0,78,-99.99,,,0.00,Acu-Link.com,2013-10-15 03:40:00,
2013-10-14 17:55:00,77.0,70.0,29.82,NNE,22,8.3,-999.0,79,-99.99,,,0.00,Acu-Link.com,2013-10-15 03:55:00,
2013-10-14 18:10:00,76.6,70.0,29.82,North,0,4.2,-999.0,80,-99.99,,,0.00,Acu-Link.com,2013-10-15 04:10:00,
2013-10-14 18:25:00,76.5,70.2,29.83,North,0,7.3,-999.0,81,-99.99,,,0.00,Acu-Link.com,2013-10-15 04:25:00,
2013-10-14 18:40:00,76.3,70.4,29.84,NNW,337,8.3,-999.0,82,-99.99,,,0.00,Acu-Link.com,2013-10-15 04:40:00,
2013-10-14 18:55:00,76.3,70.4,29.83,NNW,337,4.2,-999.0,82,-99.99,,,0.00,Acu-Link.com,2013-10-15 04:55:00,
2013-10-14 19:10:00,76.1,70.2,29.84,WNW,292,6.8,-999.0,82,-99.99,,,0.00,Acu-Link.com,2013-10-15 05:10:00,
2013-10-14 19:26:00,76.1,70.2,29.84,NNW,337,6.8,-999.0,82,-99.99,,,0.00,Acu-Link.com,2013-10-15 05:26:00,
2013-10-14 19:41:00,76.1,70.2,29.85,NW,315,3.7,-999.0,82,-99.99,,,0.00,Acu-Link.com,2013-10-15 05:41:00,
2013-10-14 19:57:00,76.1,70.2,29.84,WNW,292,5.8,-999.0,82,-99.99,,,0.00,Acu-Link.com,2013-10-15 05:57:00,
2013-10-14 20:13:00,76.1,70.2,29.84,NW,315,4.7,-999.0,82,-99.99,,,0.00,Acu-Link.com,2013-10-15 06:13:00,
2013-10-14 20:28:00,75.9,70.4,29.85,NW,315,5.8,-999.0,83,-99.99,,,0.00,Acu-Link.com,2013-10-15 06:28:00,
2013-10-14 20:44:00,75.9,70.7,29.85,WNW,292,6.3,-999.0,84,-99.99,,,0.00,Acu-Link.com,2013-10-15 06:44:00,
2013-10-14 21:00:00,75.9,70.7,29.85,NNW,337,6.3,-999.0,84,-99.99,,,0.00,Acu-Link.com,2013-10-15 07:00:00,
2013-10-14 21:15:00,75.4,70.2,29.85,WNW,292,5.3,-999.0,84,-99.99,,,0.00,Acu-Link.com,2013-10-15 07:15:00,
2013-10-14 21:45:00,75.2,70.0,29.86,NNW,337,5.3,-999.0,84,-99.99,,,0.00,Acu-Link.com,2013-10-15 07:45:00,
2013-10-14 22:01:00,75.2,70.0,29.86,NW,315,6.8,-999.0,84,-99.99,,,0.00,Acu-Link.com,2013-10-15 08:01:00,
2013-10-14 22:16:00,75.4,69.9,29.87,WNW,292,5.8,-999.0,83,-99.99,,,0.00,Acu-Link.com,2013-10-15 08:16:00,
2013-10-14 22:35:00,75.4,70.2,29.87,NW,315,5.8,-999.0,84,-99.99,,,0.00,Acu-Link.com,2013-10-15 08:35:00,
2013-10-14 22:50:00,75.0,69.5,29.86,WNW,292,7.8,-999.0,83,-99.99,,,0.00,Acu-Link.com,2013-10-15 08:50:00,
2013-10-14 23:05:00,74.7,68.1,29.86,NW,315,7.8,-999.0,80,-99.99,,,0.00,Acu-Link.com,2013-10-15 09:05:00,
2013-10-14 23:21:00,75.2,68.6,29.85,NNW,337,6.3,-999.0,80,-99.99,,,0.00,Acu-Link.com,2013-10-15 09:21:00,
2013-10-14 23:36:00,74.8,68.2,29.85,West,270,6.3,-999.0,80,-99.99,,,0.00,Acu-Link.com,2013-10-15 09:36:00,
2013-10-14 23:51:00,74.5,68.3,29.85,North,0,6.3,-999.0,81,-99.99,,,0.00,Acu-Link.com,2013-10-15 09:51:00,